LINCON Weather Reports


Display with metric or nautical units.
time (UTC)temp
F
wind
direction
speed
MPH
gust
MPH
rain 1hr
in
rain 24hr
in
rain mn
in
humidity
%
barometer
mb
20260505213511 63 331 0.0 6.0 0.00 0.02 0.02 76 1013.4
20260505213013 63 336 0.0 6.0 0.00 0.02 0.02 76 1013.4
20260505212511 63 334 0.0 6.0 0.00 0.02 0.02 77 1013.5
20260505212011 63 0 3.0 3.0 0.00 0.02 0.02 77 1013.5
20260505211511 63 0 0.0 0.0 0.00 0.02 0.02 76 1013.5
20260505211011 63 0 0.0 2.0 0.00 0.02 0.02 77 1013.4
20260505210511 63 0 0.0 2.0 0.00 0.02 0.02 77 1013.5
20260505210011 62 212 0.0 2.0 0.00 0.02 0.02 77 1013.5
20260505205510 62 0 0.0 0.0 0.00 0.02 0.02 78 1013.5
20260505205011 62 0 0.0 0.0 0.00 0.02 0.02 78 1013.5
20260505204513 62 0 0.0 0.0 0.00 0.02 0.02 78 1013.5
20260505204011 62 0 0.0 0.0 0.00 0.02 0.02 79 1013.5
20260505203511 62 0 0.0 0.0 0.00 0.02 0.02 79 1013.6
20260505203011 61 0 0.0 0.0 0.00 0.02 0.02 79 1013.6
20260505202511 61 0 0.0 0.0 0.00 0.02 0.02 78 1013.5
20260505202011 61 0 0.0 0.0 0.00 0.02 0.02 79 1013.5
20260505201510 61 0 0.0 0.0 0.00 0.02 0.02 80 1013.5
20260505201011 61 0 0.0 0.0 0.00 0.02 0.02 80 1013.6
20260505200011 60 0 0.0 0.0 0.00 0.02 0.02 81 1013.6
20260505195511 60 0 0.0 0.0 0.00 0.02 0.02 80 1013.6
20260505195011 60 0 0.0 0.0 0.00 0.02 0.02 80 1013.6
20260505194511 60 0 0.0 0.0 0.00 0.02 0.02 81 1013.6
20260505194011 60 0 0.0 0.0 0.00 0.02 0.02 81 1013.6
20260505193511 60 0 0.0 0.0 0.00 0.02 0.02 82 1013.6
20260505193011 60 0 0.0 0.0 0.00 0.02 0.02 82 1013.6
20260505192511 59 0 0.0 0.0 0.00 0.02 0.02 83 1013.7
20260505192103 59 0 0.0 0.0 0.00 0.02 0.02 83 1013.6
20260505192011 59 0 0.0 0.0 0.00 0.02 0.02 83 1013.6
20260505191511 59 0 0.0 0.0 0.00 0.02 0.02 83 1013.5
20260505191011 59 0 0.0 0.0 0.00 0.02 0.02 85 1013.6
20260505190511 59 0 0.0 0.0 0.00 0.02 0.02 85 1013.5
20260505190013 58 0 0.0 0.0 0.00 0.02 0.02 84 1013.5
20260505185511 58 0 0.0 0.0 0.00 0.02 0.02 84 1013.5
20260505185011 58 0 0.0 5.0 0.00 0.02 0.02 86 1013.4
20260505184511 58 212 0.0 5.0 0.00 0.02 0.02 85 1013.4
20260505184011 58 198 0.0 5.0 0.00 0.02 0.02 86 1013.4
20260505183511 58 0 0.0 0.0 0.00 0.02 0.02 87 1013.3
20260505183011 58 0 0.0 0.0 0.00 0.02 0.02 87 1013.3
20260505182512 58 0 0.0 0.0 0.00 0.02 0.02 88 1013.2
20260505182011 58 0 0.0 0.0 0.00 0.02 0.02 88 1013.2
20260505181510 57 0 0.0 0.0 0.00 0.02 0.02 89 1013.2
20260505181011 57 0 0.0 3.0 0.00 0.02 0.02 89 1013.1
20260505180511 57 0 0.0 3.0 0.00 0.02 0.02 89 1013.2
20260505180011 57 0 0.0 3.0 0.00 0.02 0.02 89 1013.1
20260505175510 57 218 0.0 7.0 0.00 0.02 0.02 89 1013.2
20260505175011 57 191 0.0 7.0 0.00 0.02 0.02 89 1013.1
20260505174511 57 273 0.0 7.0 0.00 0.02 0.02 89 1013.2
20260505174011 57 0 0.0 0.0 0.00 0.02 0.02 89 1013.1
20260505173510 57 0 0.0 0.0 0.00 0.02 0.02 89 1013.1
20260505173013 57 0 0.0 0.0 0.00 0.02 0.02 90 1013.0
20260505172511 57 0 0.0 0.0 0.00 0.02 0.02 90 1012.9
20260505172012 57 0 0.0 0.0 0.00 0.02 0.02 91 1012.9
20260505171510 57 0 0.0 0.0 0.00 0.02 0.02 91 1012.8
20260505171011 57 0 0.0 0.0 0.00 0.02 0.02 92 1012.7
20260505170510 57 0 0.0 0.0 0.00 0.02 0.02 92 1012.7
20260505170011 57 0 0.0 0.0 0.00 0.02 0.02 93 1012.7
20260505165510 57 0 0.0 0.0 0.00 0.02 0.02 93 1012.7
20260505165012 57 0 0.0 0.0 0.00 0.02 0.02 93 1012.7
20260505164511 57 0 0.0 0.0 0.00 0.02 0.02 94 1012.7
20260505164011 57 0 0.0 0.0 0.00 0.02 0.02 94 1012.7
20260505163510 57 0 0.0 0.0 0.00 0.02 0.02 94 1012.6
20260505163011 57 0 0.0 0.0 0.00 0.02 0.02 94 1012.6
20260505162510 57 0 0.0 0.0 0.00 0.02 0.02 94 1012.5
20260505162010 57 0 0.0 0.0 0.00 0.02 0.02 95 1012.5
20260505161512 57 0 0.0 0.0 0.00 0.02 0.02 95 1012.4
20260505161011 57 0 0.0 0.0 0.00 0.02 0.02 95 1012.4
20260505160510 56 0 0.0 0.0 0.00 0.02 0.02 95 1012.4
20260505153010 56 0 0.0 0.0 0.00 0.02 0.02 97 1012.3
20260505152510 56 0 0.0 0.0 0.00 0.02 0.02 97 1012.4
20260505152010 56 0 0.0 0.0 0.00 0.02 0.02 97 1012.3
20260505151510 56 0 0.0 0.0 0.00 0.02 0.02 97 1012.3
20260505151010 55 0 0.0 0.0 0.00 0.02 0.02 97 1012.3
20260505150510 55 0 0.0 0.0 0.00 0.02 0.02 97 1012.3
20260505140510 54 0 0.0 0.0 0.00 0.02 0.02 97 1012.0
20260505125010 54 0 0.0 0.0 0.00 0.02 0.02 98 1011.3
20260505124010 54 0 0.0 0.0 0.00 0.02 0.02 98 1011.3
20260505123511 54 0 0.0 0.0 0.00 0.02 0.02 98 1011.2
20260505123011 54 0 0.0 0.0 0.00 0.02 0.02 98 1011.3
20260505122511 54 0 0.0 0.0 0.00 0.02 0.02 98 1011.2
20260505122011 54 0 0.0 0.0 0.00 0.02 0.02 98 1011.3
20260505121510 54 0 0.0 0.0 0.00 0.02 0.02 98 1011.3
20260505121011 54 0 0.0 0.0 0.00 0.02 0.02 98 1011.2
20260505120510 54 0 0.0 0.0 0.00 0.02 0.02 98 1011.2
20260505120010 54 0 0.0 0.0 0.00 0.02 0.02 98 1011.2
20260505115510 54 0 0.0 0.0 0.01 0.02 0.02 97 1011.2
20260505115010 54 0 0.0 0.0 0.01 0.02 0.02 97 1011.2
20260505114010 54 0 0.0 0.0 0.01 0.02 0.02 97 1011.2
20260505113510 54 0 0.0 0.0 0.01 0.02 0.02 97 1011.2
20260505113010 54 0 0.0 0.0 0.01 0.02 0.02 97 1011.2
20260505112510 54 0 0.0 0.0 0.01 0.02 0.02 97 1011.1
20260505112010 54 0 0.0 0.0 0.01 0.02 0.02 97 1011.2
20260505111510 54 0 0.0 0.0 0.01 0.02 0.02 97 1011.1
20260505111010 54 0 0.0 0.0 0.01 0.02 0.02 97 1011.1
20260505110510 54 0 0.0 0.0 0.01 0.02 0.02 97 1011.1
20260505102010 54 0 0.0 0.0 0.00 0.01 0.01 97 1011.1
20260505101510 54 0 0.0 0.0 0.00 0.01 0.01 97 1011.1
20260505101011 54 0 0.0 0.0 0.00 0.01 0.01 97 1011.1
20260505100510 54 0 0.0 0.0 0.00 0.01 0.01 97 1011.1
20260505095510 54 0 0.0 0.0 0.00 0.01 0.01 97 1011.1
20260505095010 55 0 0.0 0.0 0.00 0.01 0.01 97 1011.1
20260505094510 55 0 0.0 3.0 0.00 0.01 0.01 97 1011.1
20260505094010 55 0 0.0 3.0 0.00 0.01 0.01 97 1011.0
20260505093510 55 182 0.0 3.0 0.00 0.01 0.01 97 1011.0
20260505093012 55 0 0.0 0.0 0.00 0.01 0.01 97 1011.0
20260505092511 55 0 0.0 0.0 0.00 0.01 0.01 97 1011.0
20260505092011 55 0 0.0 0.0 0.00 0.01 0.01 97 1011.0
20260505091510 55 0 0.0 0.0 0.00 0.01 0.01 97 1011.0
20260505091011 55 0 0.0 0.0 0.00 0.01 0.01 97 1011.0
20260505090510 55 0 0.0 0.0 0.00 0.01 0.01 97 1010.9
20260505090011 55 0 0.0 0.0 0.00 0.01 0.01 97 1011.0
20260505085510 55 0 0.0 0.0 0.00 0.01 0.01 97 1010.9
20260505085011 55 0 0.0 0.0 0.00 0.01 0.01 97 1010.9
20260505084514 55 0 0.0 0.0 0.00 0.01 0.01 97 1010.9
20260505084010 55 0 0.0 0.0 0.00 0.01 0.01 97 1010.9
20260505083510 55 0 0.0 0.0 0.00 0.01 0.01 97 1010.8
20260505083011 55 0 0.0 0.0 0.00 0.01 0.01 97 1010.9
20260505082510 55 0 0.0 0.0 0.00 0.01 0.01 97 1010.9
20260505082010 55 0 0.0 0.0 0.00 0.01 0.01 97 1010.8
20260505081510 55 0 0.0 0.0 0.00 0.01 0.01 97 1010.8
20260505081010 55 0 0.0 0.0 0.00 0.01 0.01 97 1010.7
20260505080510 55 0 0.0 0.0 0.01 0.01 0.01 97 1010.6
20260505080010 55 0 0.0 0.0 0.01 0.01 0.01 97 1010.7
20260505075511 55 0 0.0 0.0 0.01 0.01 0.01 97 1010.7
20260505075010 55 0 0.0 0.0 0.01 0.01 0.01 97 1010.6
20260505074510 55 0 0.0 0.0 0.01 0.01 0.01 96 1010.6
20260505074011 55 0 0.0 0.0 0.01 0.01 0.01 96 1010.6
20260505073510 55 0 0.0 0.0 0.01 0.01 0.01 96 1010.6
20260505073010 55 0 0.0 0.0 0.01 0.01 0.01 96 1010.5
20260505072510 55 0 0.0 0.0 0.01 0.01 0.01 96 1010.6
20260505072011 55 0 0.0 0.0 0.01 0.01 0.01 96 1010.5
20260505071510 55 0 0.0 0.0 0.01 0.01 0.01 96 1010.5
20260505071010 55 0 0.0 0.0 0.01 0.01 0.01 96 1010.5
20260505070510 55 0 0.0 0.0 0.00 0.01 0.01 96 1010.6
20260505070010 55 0 0.0 0.0 0.00 0.00 0.00 96 1010.6
20260505065510 55 0 0.0 0.0 0.00 0.00 0.00 96 1010.7
20260505065011 55 0 0.0 0.0 0.00 0.00 0.00 96 1010.7
20260505064510 55 0 0.0 0.0 0.00 0.00 0.00 96 1010.7
20260505064012 55 0 0.0 0.0 0.00 0.00 0.00 96 1010.7
20260505063511 55 0 0.0 0.0 0.00 0.00 0.00 96 1010.7
20260505063010 55 0 0.0 0.0 0.00 0.00 0.00 96 1010.7
20260505062510 55 0 0.0 0.0 0.00 0.00 0.00 96 1010.6
20260505062011 55 0 0.0 0.0 0.00 0.00 0.00 96 1010.6
20260505061511 55 0 0.0 0.0 0.00 0.00 0.00 96 1010.6
20260505061010 55 0 0.0 0.0 0.00 0.00 0.00 96 1010.7
20260505060510 55 0 0.0 0.0 0.00 0.00 0.00 96 1010.6
20260505060010 55 0 0.0 0.0 0.00 0.00 0.00 96 1010.7
20260505055510 55 0 0.0 0.0 0.00 0.00 0.00 95 1010.7
20260505055010 55 0 0.0 0.0 0.00 0.00 0.00 95 1010.7
20260505054510 55 0 0.0 0.0 0.00 0.00 0.00 95 1010.7
20260505054012 55 0 0.0 0.0 0.00 0.00 0.00 95 1010.7
20260505053510 56 0 0.0 0.0 0.00 0.00 0.00 95 1010.7
20260505053011 56 0 0.0 0.0 0.00 0.00 0.00 95 1010.7
20260505052510 56 0 0.0 0.0 0.00 0.00 0.00 95 1010.7
20260505052010 56 0 0.0 0.0 0.00 0.00 0.00 95 1010.7
20260505051510 56 0 0.0 0.0 0.00 0.00 0.00 95 1010.8
20260505051010 56 0 0.0 6.0 0.00 0.00 0.00 95 1010.7
20260505050510 56 205 0.0 6.0 0.00 0.00 0.00 94 1010.8
20260505041510 56 0 0.0 5.0 0.00 0.00 0.00 91 1010.4
20260505041010 56 0 0.0 5.0 0.00 0.00 0.00 91 1010.3
20260505040510 56 217 0.0 5.0 0.00 0.00 0.00 90 1010.3
20260505040010 56 245 1.0 9.0 0.00 0.00 0.00 90 1010.2
20260505035512 57 211 2.0 9.0 0.00 0.00 0.00 90 1010.2
20260505035010 57 271 0.0 9.0 0.00 0.00 0.00 89 1010.2
20260505034510 57 170 0.0 5.0 0.00 0.00 0.00 88 1010.1
20260505034010 57 170 0.0 5.0 0.00 0.00 0.00 88 1010.0
20260505033510 57 0 0.0 0.0 0.00 0.00 0.00 87 1010.0
20260505033010 57 0 0.0 3.0 0.00 0.00 0.00 87 1009.9
20260505032510 57 0 0.0 3.0 0.00 0.00 0.00 87 1009.8
20260505032011 57 117 0.0 3.0 0.00 0.00 0.00 87 1009.8
20260505031510 57 0 0.0 6.0 0.00 0.00 0.00 86 1009.7
20260505031011 57 0 0.0 6.0 0.00 0.00 0.00 86 1009.7
20260505030510 57 204 0.0 6.0 0.00 0.00 0.00 86 1009.7
20260505030010 57 0 0.0 0.0 0.00 0.00 0.00 85 1009.7
20260505025510 57 0 0.0 0.0 0.00 0.00 0.00 85 1009.7
20260505025010 57 0 0.0 7.0 0.00 0.00 0.00 84 1009.6
20260505024510 57 0 0.0 7.0 0.00 0.00 0.00 84 1009.6
20260505024010 57 186 0.0 7.0 0.00 0.00 0.00 85 1009.6
20260505023510 57 205 1.0 6.0 0.00 0.00 0.00 84 1009.7
20260505023011 57 225 0.0 6.0 0.00 0.00 0.00 84 1009.7
20260505022510 57 204 1.0 5.0 0.00 0.00 0.00 84 1009.8
20260505022010 58 189 0.0 8.0 0.00 0.00 0.00 83 1009.8
20260505021510 58 204 1.0 8.0 0.00 0.00 0.00 83 1009.9
20260505021011 58 264 1.0 8.0 0.00 0.00 0.00 82 1009.9
20260505020510 58 186 0.0 8.0 0.00 0.00 0.00 81 1009.9
20260505015510 58 303 0.0 8.0 0.00 0.00 0.00 80 1009.9
20260505015010 58 212 3.0 8.0 0.00 0.00 0.00 80 1009.8
20260505014512 59 180 3.0 6.0 0.00 0.00 0.00 80 1009.9
20260505014010 59 207 2.0 6.0 0.00 0.00 0.00 79 1009.8
20260505013510 59 197 3.0 13.0 0.00 0.00 0.00 79 1009.8
20260505013010 59 218 4.0 13.0 0.00 0.00 0.00 78 1009.9
20260505012510 59 210 6.0 13.0 0.00 0.00 0.00 78 1009.9
20260505012010 59 252 3.0 11.0 0.00 0.00 0.00 78 1010.0
20260505011510 59 207 7.0 12.0 0.00 0.00 0.00 78 1010.0
20260505011011 60 267 5.0 12.0 0.00 0.00 0.00 77 1010.1
20260505010510 60 273 6.0 12.0 0.00 0.00 0.00 77 1010.2
20260505010010 60 184 7.0 10.0 0.00 0.00 0.00 77 1010.1
20260505005604 60 271 4.0 11.0 0.00 0.00 0.00 78 1010.0
20260505005512 60 271 4.0 11.0 0.00 0.00 0.00 78 1010.0
20260505005010 60 204 6.0 11.0 0.00 0.00 0.00 77 1010.0
20260505004510 60 282 4.0 11.0 0.00 0.00 0.00 78 1010.0
20260505004010 60 281 5.0 11.0 0.00 0.00 0.00 77 1010.1
20260505003510 60 291 5.0 11.0 0.00 0.00 0.00 78 1010.1
20260505002510 61 256 5.0 10.0 0.00 0.00 0.00 77 1010.2
20260505002010 61 260 4.0 12.0 0.00 0.00 0.00 77 1010.2
20260505001510 61 191 3.0 12.0 0.00 0.00 0.00 78 1010.2
20260505001010 61 207 5.0 12.0 0.00 0.00 0.00 77 1010.3
20260505000510 61 194 6.0 10.0 0.00 0.00 0.00 77 1010.4
20260505000010 61 257 5.0 14.0 0.00 0.00 0.00 77 1010.5
20260504235510 61 267 5.0 14.0 0.00 0.00 0.00 77 1010.5
20260504235010 61 280 5.0 14.0 0.00 0.00 0.00 77 1010.5
20260504234510 61 252 5.0 11.0 0.00 0.00 0.00 78 1010.5
20260504234010 61 217 6.0 11.0 0.00 0.00 0.00 77 1010.5
20260504233510 61 308 6.0 10.0 0.00 0.00 0.00 78 1010.5
20260504233010 61 312 4.0 10.0 0.00 0.00 0.00 78 1010.5
20260504232512 61 242 6.0 10.0 0.00 0.00 0.00 77 1010.5
20260504232010 61 198 5.0 14.0 0.00 0.00 0.00 77 1010.4
20260504231510 61 266 4.0 14.0 0.00 0.00 0.00 77 1010.4
20260504231010 62 261 4.0 14.0 0.00 0.00 0.00 77 1010.5
20260504230511 62 256 5.0 13.0 0.00 0.00 0.00 77 1010.5
20260504230010 62 236 5.0 13.0 0.00 0.00 0.00 75 1010.4
20260504225512 62 263 6.0 14.0 0.00 0.00 0.00 74 1010.4
20260504225010 62 259 7.0 14.0 0.00 0.00 0.00 74 1010.4
20260504224511 62 208 7.0 14.0 0.00 0.00 0.00 74 1010.4
20260504224010 62 298 7.0 14.0 0.00 0.00 0.00 73 1010.5
20260504223510 62 266 9.0 14.0 0.00 0.00 0.00 74 1010.5
20260504223010 62 259 7.0 15.0 0.00 0.00 0.00 75 1010.5
20260504222510 62 245 8.0 15.0 0.00 0.00 0.00 74 1010.6
20260504222010 62 232 8.0 15.0 0.00 0.00 0.00 75 1010.6
20260504221510 63 231 7.0 14.0 0.00 0.00 0.00 75 1010.6
20260504221010 63 250 6.0 12.0 0.00 0.00 0.00 76 1010.7
20260504220510 63 256 7.0 12.0 0.00 0.00 0.00 75 1010.6
20260504220010 63 239 7.0 12.0 0.00 0.00 0.00 75 1010.7
20260504215510 63 211 6.0 15.0 0.00 0.00 0.00 76 1010.7
20260504215010 63 270 7.0 15.0 0.00 0.00 0.00 74 1010.7
20260504214510 63 246 7.0 15.0 0.00 0.00 0.00 75 1010.7
20260504214010 63 247 5.0 14.0 0.00 0.00 0.00 75 1010.8